Location: La Bastide
(43.1661°N, 1.2755°E)
Time: 01:13:18
(UTC+00:00)

USA 238 DEB - Pass Details

Date: 13 December 2025
Orbit: 883 x 1328 km, 63.4° (Epoch: 10 January)

Event Time Altitude Azimuth Distance (km) Brightness Sun altitude
Rises 17:00:03 0° 198° (SSW) 3,492 7.1 -7.3°
Reaches altitude 10° 17:02:31 10° 194° (SSW) 2,580 6.3 -7.7°
Maximum altitude 17:08:18 54° 119° (ESE) 1,146 3.7 -8.6°
Drops below altitude 10° 17:14:38 10° 44° (NE) 2,819 5.3 -9.7°
Enters shadow 17:14:57 - 43° (NE) 2,931 5.4 -9.7°
